SCP
0 0 0 0 0 0 0 0 0 0 0 0 0 0 0 0 0 0 0 0 0 0 0 0 0 0 0 0 0 0 0 0 0 0 0 0 0 0 0 0 0 0 0 0
0 0 0 0 0 0 0 0 0 0 0 0 0 0 0 0 0 0 0 0 0 0 0 0 0 0 0 0 0 0 0 0 0 0 0 0 0 0 0 0 0 0 0 0
0 0 0 0 0 0 0 0 0 0 0 0 0 0 0 0 0 0 0 0 0 0 0 0 0 0 0 0 0 0 0 0 0 0 0 0 0 0 0 0 0 0 0 0
0 0 0 0 0 0 0 0 0 0 0 0 0 0 0 0 0 0 0 0 0 0 0 0 0 0 0 0 0 0 0 0 0 0 0 0 0 0 0 0 0 0 0 0
0 0 0 0 0 0 0 0 0 0 0 0 0 0 0 0 0 0 0 0 0 0 0 0 0 0 0 0 0 0 0 0 0 0 0 0 0 0 0 0 0 0 0 0
0 0 0 0 0 0 0 0 0 0 0 0 0 0 0 0 0 0 0 0 0 0 0 0 0 0 0 0 0 0 0 0 0 0 0 0 0 0 0 0 0 0 0 0
0 0 0 0 0 0 0 0 0 0 0 0 0 0 0 0 0 0 0 0 0 0 0 0 0 0 0 0 0 0 0 0 0 0 0 0 0 0 0 0 0 0 0 0
0 0 0 0 0 0 0 0 0 0 0 0 0 0 0 0 0 0 0 0 0 0 0 0 0 0 0 0 0 0 0 0 0 0 0 0 0 0 0 0 0 0 0 0
0 0 0 0 0 0 0 0 0 0 0 0 0 0 0 0 0 0 0 0 0 0 0 0 0 0 0 0 0 0 0 0 0 0 0 0 0 0 0 0 0 0 0 0
0 0 0 0 0 0 0 0 0 0 0 0 0 0 0 0 0 0 0 0 0 0 0 0 0 0 0 0 0 0 0 0 0 0 0 0 0 0 0 0 0 0 0 0
0 0 0 0 0 0 0 0 0 0 0 0 0 0 0 0 0 0 0 0 0 0 0 0 0 0 0 0 0 0 0 0 0 0 0 0 0 0 0 0 0 0 0 0
0 0 0 0 0 0 0 0 0 0 0 0 0 0 0 0 0 0 0 0 0 0 0 0 0 0 0 0 0 0 0 0 0 0 0 0 0 0 0 0 0 0 0 0
0 0 0 0 0 0 0 0 0 0 0 0 0 0 0 0 0 0 0 0 0 0 0 0 0 0 0 0 0 0 0 0 0 0 0 0 0 0 0 0 0 0 0 0
0 0 0 0 0 0 0 0 0 0 0 0 0 0 0 0 0 0 0 0 0 0 0 0 0 0 0 0 0 0 0 0 0 0 0 0 0 0 0 0 0 0 0 0
0 0 0 0 0 0 0 0 0 0 0 0 0 0 0 0 0 0 0 0 0 0 0 0 0 0 0 0 0 0 0 0 0 0 0 0 0 0 0 0 0 0 0 0
0 0 0 0 0 0 0 0 0 0 0 0 0 0 0 0 0 0 0 0 0 0 0 0 0 0 0 0 0 0 0 0 0 0 0 0 0 0 0 0 0 0 0 0
0 0 0 0 0 0 0 0 0 0 0 0 0 0 0 0 0 0 0 0 0 0 0 0 0 0 0 0 0 0 0 0 0 0 0 0 0 0 0 0 0 0 0 0
0 0 0 0 0 0 0 0 0 0 0 0 0 0 0 0 0 0 0 0 0 0 0 0 0 0 0 0 0 0 0 0 0 0 0 0 0 0 0 0 0 0 0 0
0 0 0 0 0 0 0 0 0 0 0 0 0 0 0 0 0 0 0 0 0 0 0 0 0 0 0 0 0 0 0 0 0 0 0 0 0 0 0 0 0 0 0 0
0 0 0 0 0 0 0 0 0 0 0 0 0 0 0 0 0 0 0 0 0 0 0 0 0 0 0 0 0 0 0 0 0 0 0 0 0 0 0 0 0 0 0 0
0 0 0 0 0 0 0 0 0 0 0 0 0 0 0 0 0 0 0 0 0 0 0 0 0 0 0 0 0 0 0 0 0 0 0 0 0 0 0 0 0 0 0 0
0 0 0 0 0 0 0 0 0 0 0 0 0 0 0 0 0 0 0 0 0 0 0 0 0 0 0 0 0 0 0 0 0 0 0 0 0 0 0 0 0 0 0 0
0 0 0 0 0 0 0 0 0 0 0 0 0 0 0 0 0 0 0 0 0 0 0 0 0 0 0 0 0 0 0 0 0 0 0 0 0 0 0 0 0 0 0 0
0 0 0 0 0 0 0 0 0 0 0 0 0 0 0 0 0 0 0 0 0 0 0 0 0 0 0 0 0 0 0 0 0 0 0 0 0 0 0 0 0 0 0 0
0 0 0 0 0 0 0 0 0 0 0 0 0 0 0 0 0 0 0 0 0 0 0 0 0 0 0 0 0 0 0 0 0 0 0 0 0 0 0 0 0 0 0 0
0 0 0 0 0 0 0 0 0 0 0 0 0 0 0 0 0 0 0 0 0 0 0 0 0 0 0 0 0 0 0 0 0 0 0 0 0 0 0 0 0 0 0 0
0 0 0 0 0 0 0 0 0 0 0 0 0 0 0 0 0 0 0 0 0 0 0 0 0 0 0 0 0 0 0 0 0 0 0 0 0 0 0 0 0 0 0 0
Wind_Speed
4 3 2 2 3 4 6 7 9 11 12 10 10 11 12 14 15 15 15 15 16 16 15 16 16 16 16 16 16 16 17 17 17 17 16 16 16 15 15 15 16 15 15 15
3 2 0 1 1 4 6 8 10 11 10 9 10 11 13 15 15 16 16 17 17 17 17 17 17 17 17 17 16 17 17 18 17 17 17 16 16 16 16 15 15 15 15 14
1 2 6 4 0 4 8 9 10 11 11 12 13 14 15 15 14 15 17 18 18 18 17 17 17 17 17 17 17 17 17 17 17 17 16 16 16 16 15 15 14 14 14 14
3 3 4 6 3 4 9 10 8 8 11 13 14 14 14 11 12 15 17 18 18 17 18 17 17 17 17 17 17 17 17 17 17 16 16 16 15 16 15 14 13 13 13 14
5 6 3 4 1 5 9 10 4 7 12 13 14 15 10 10 13 15 16 17 16 17 18 17 17 17 17 17 17 17 17 16 16 16 16 16 15 15 14 12 12 12 12 12
5 7 4 4 4 3 7 4 4 8 12 13 14 13 11 15 16 16 16 15 16 17 17 17 16 16 17 17 17 16 17 17 16 15 15 15 15 14 13 11 11 11 11 11
6 6 1 5 3 3 7 8 8 9 11 12 12 12 14 16 16 16 16 17 16 16 15 15 16 16 17 17 17 16 16 16 16 15 15 14 13 12 12 11 10 10 10 10
4 5 2 5 1 4 7 6 7 9 10 11 12 13 14 15 16 16 16 17 17 15 15 15 15 15 16 16 16 16 16 16 15 15 13 12 12 11 10 10 9 8 8 9
3 3 5 1 2 3 4 6 7 8 10 11 12 13 15 15 15 15 16 16 15 16 16 15 15 15 16 16 16 16 16 16 15 14 12 10 10 10 9 8 7 6 6 6
4 3 2 2 3 2 3 5 6 7 9 10 12 14 15 14 14 15 15 15 15 16 16 16 16 16 15 15 14 15 15 15 12 11 10 9 7 7 6 6 6 6 6 5
7 4 3 4 3 2 2 3 5 6 7 9 11 13 13 13 14 14 14 14 14 15 15 16 16 16 15 14 14 14 14 13 12 10 10 9 7 5 6 5 5 6 5 4
4 2 3 0 2 2 2 3 5 6 8 9 10 12 13 13 13 13 14 14 14 15 16 16 16 16 15 14 13 13 12 11 9 9 8 7 6 5 3 4 4 4 5 5
2 2 1 3 3 2 2 3 3 5 7 9 9 10 12 12 13 14 14 15 15 15 15 15 15 15 15 14 13 13 12 11 9 8 8 7 6 5 4 2 3 3 3 4
4 4 4 4 3 3 2 2 3 5 6 7 9 10 11 12 13 14 15 15 15 15 15 14 15 15 15 14 14 13 12 11 9 7 7 6 5 5 4 4 3 1 1 2
9 8 4 3 4 4 3 3 5 6 6 7 8 9 11 13 14 14 14 14 14 14 14 15 15 15 15 15 14 13 10 8 7 7 6 6 5 5 4 3 3 2 0 3
9 9 7 6 6 5 5 4 5 6 6 8 9 10 11 12 13 13 13 13 14 14 14 14 14 15 15 14 14 11 9 10 10 8 6 5 5 4 3 3 3 2 1 1
11 11 10 9 7 6 5 4 5 5 6 7 9 10 11 12 13 13 13 14 13 12 12 13 14 15 15 13 12 9 9 8 9 7 6 5 5 5 3 2 2 1 2 3
10 8 8 7 6 6 5 4 4 4 5 6 8 9 10 11 12 13 13 14 13 12 12 13 15 16 14 13 11 9 8 8 7 6 5 5 6 5 4 3 3 3 2 2
10 9 8 7 6 5 5 4 3 4 4 6 7 9 9 10 11 12 12 12 12 13 14 16 17 15 14 14 15 8 9 9 7 6 5 4 4 4 4 4 4 4 3 2
10 9 9 8 7 6 5 4 4 4 4 5 6 8 9 10 10 11 12 10 8 9 13 14 14 12 13 14 16 9 9 8 7 6 5 5 5 4 4 4 4 4 3 3
10 10 10 9 8 8 7 5 5 4 4 4 6 7 8 9 10 10 10 9 10 12 14 12 10 11 12 14 13 8 9 8 7 6 6 5 5 5 5 4 4 4 3 3
9 10 11 10 9 8 7 6 6 5 4 4 5 6 7 8 9 9 8 7 9 11 11 9 9 13 17 16 8 9 9 9 7 7 6 6 5 5 5 5 4 4 4 3
8 9 10 10 9 8 7 7 7 6 5 4 4 5 6 7 7 7 8 7 9 12 10 7 12 17 19 10 8 8 9 9 8 7 6 6 5 5 5 5 5 5 4 4
8 9 9 8 8 8 9 8 7 6 5 4 3 3 4 5 5 5 6 6 7 10 8 7 11 15 13 7 8 8 7 8 8 7 7 6 6 6 5 5 5 5 6 6
8 8 9 9 9 8 9 8 8 7 7 4 4 2 2 2 4 5 6 7 7 8 8 6 7 11 8 7 8 8 7 7 8 7 7 7 7 7 6 6 6 6 6 6
7 8 8 9 8 7 6 7 6 6 5 4 3 2 1 1 2 3 4 6 7 6 6 6 7 7 7 8 8 8 7 7 7 7 7 7 7 7 6 7 8 6 6 6
8 8 7 8 8 8 7 7 6 6 5 5 4 3 1 0 1 3 4 4 5 5 5 6 6 6 7 7 7 7 7 7 7 7 7 6 6 6 6 7 6 6 6 7
Wind_Direction
61 71 65 77 48 20 11 353 330 331 327 341 348 335 329 326 324 324 324 324 324 322 320 318 316 315 313 311 310 307 303 299 297 295 292 289 285 282 279 275 270 265 261 256
144 130 167 209 326 343 349 337 327 319 328 358 335 323 324 326 325 324 325 325 325 323 321 320 318 315 314 311 309 306 302 300 298 296 293 290 286 283 279 274 272 269 263 259
260 171 256 224 222 328 331 331 324 321 335 336 326 328 327 323 321 325 325 324 323 323 320 319 317 316 313 311 309 305 302 300 299 297 295 291 289 286 283 279 274 268 263 257
307 246 279 71 56 331 318 316 319 317 327 331 326 325 315 317 331 327 325 323 323 321 319 318 318 316 314 311 309 307 304 302 301 299 296 293 289 285 282 279 275 271 265 258
292 288 285 138 158 334 321 313 336 327 327 327 328 313 312 7 343 327 324 322 321 320 319 319 318 318 316 312 310 308 307 306 304 302 298 295 290 287 285 282 276 270 264 257
281 296 308 79 71 4 291 288 53 331 326 328 324 317 336 347 333 327 325 323 321 320 320 319 320 320 315 312 312 312 311 308 306 302 299 295 292 289 287 283 276 272 265 257
282 284 320 85 85 265 298 3 353 331 326 323 326 318 321 325 327 326 325 323 322 322 320 320 320 320 315 314 313 314 313 308 305 303 299 295 292 291 289 285 278 269 265 260
273 281 50 105 264 313 341 339 324 324 324 324 319 317 322 325 326 326 326 325 326 323 320 320 322 321 316 315 316 316 313 310 308 306 302 301 298 293 290 285 280 271 264 260
298 353 76 148 297 338 325 309 319 323 326 323 318 322 326 327 326 326 326 327 326 323 320 322 325 323 317 316 317 315 313 312 311 310 308 304 300 299 297 288 279 275 264 257
247 235 204 218 245 266 282 302 317 320 321 321 321 324 326 327 326 326 328 327 326 323 323 324 325 323 319 317 319 316 315 314 315 313 311 310 306 304 299 294 288 282 274 271
243 250 232 208 229 269 280 295 306 316 322 324 323 324 327 324 326 327 327 326 325 324 323 323 324 321 321 324 322 317 316 316 315 312 312 309 308 307 304 305 303 293 291 287
262 192 249 52 140 210 259 289 311 317 319 324 326 325 326 325 326 326 326 325 325 326 325 323 322 321 324 326 323 318 317 316 316 316 316 315 314 312 277 273 287 279 280 288
241 163 170 118 157 196 258 292 306 311 318 322 326 327 325 324 325 327 326 328 328 326 323 323 323 323 327 329 324 320 317 316 314 315 316 316 319 320 322 282 234 244 265 269
175 174 186 196 193 191 242 276 296 303 315 321 325 326 326 325 327 329 330 329 328 325 324 327 326 327 330 328 324 321 320 317 314 313 315 316 319 320 319 316 307 259 193 198
197 206 212 166 176 189 219 255 282 302 320 324 327 329 330 328 328 328 329 329 329 327 330 333 330 330 332 328 325 322 322 324 321 320 319 322 323 324 326 327 330 338 70 137
193 198 196 197 207 211 228 256 285 309 320 323 327 332 330 327 326 327 332 335 333 331 332 334 332 332 331 327 326 323 324 326 322 320 321 330 329 330 338 338 342 348 12 59
187 196 203 211 213 218 233 259 286 306 315 321 328 329 327 329 329 334 336 336 332 327 334 339 335 332 329 329 329 324 324 326 320 320 331 339 335 335 344 348 349 3 39 53
202 203 195 201 208 210 220 238 263 288 305 318 320 325 329 332 332 333 333 331 329 332 345 345 340 332 331 336 335 326 324 326 331 335 339 348 341 345 358 10 20 35 61 113
199 194 187 187 190 196 211 228 250 278 300 310 317 325 327 330 332 330 330 328 333 339 344 341 334 332 338 341 338 327 330 331 338 344 351 347 338 2 12 15 27 33 34 51
198 196 193 189 188 197 206 215 231 254 279 299 309 318 326 333 333 331 329 327 350 349 335 332 331 338 339 338 335 331 335 340 346 351 360 5 6 9 19 26 35 43 45 47
204 201 198 197 196 202 208 214 228 246 264 283 301 316 325 328 330 331 328 332 351 353 336 326 336 346 340 331 325 341 348 352 356 1 6 11 9 12 21 31 39 56 60 57
214 209 206 204 203 206 206 211 225 240 250 266 291 311 320 325 331 331 331 343 342 351 335 338 350 345 335 327 340 351 353 358 2 5 8 12 14 19 28 36 43 53 61 62
226 220 214 209 209 209 206 211 220 230 242 257 281 305 321 329 328 327 332 352 344 341 328 349 346 338 332 333 351 355 358 1 4 7 8 10 16 22 27 34 41 46 51 56
236 228 223 215 210 211 213 212 212 218 225 235 248 280 302 310 319 336 338 338 344 333 330 353 342 336 331 344 354 357 2 3 1 2 7 10 20 26 26 27 34 38 42 45
247 235 224 214 214 218 217 211 207 209 215 218 226 222 266 314 325 335 332 335 346 334 334 351 348 338 346 358 358 358 3 9 1 357 6 12 15 19 24 27 32 38 40 40
253 240 228 219 223 226 218 211 207 203 206 210 210 202 253 325 320 321 325 336 348 343 341 350 357 353 358 0 1 2 2 4 3 8 12 13 17 20 20 22 28 33 38 42
253 243 231 226 220 217 217 210 207 204 203 203 197 175 170 278 325 340 342 347 350 355 358 358 3 5 3 4 4 5 7 5 4 8 10 14 21 23 25 29 29 28 31 39